Wind_Speed
12 15 17 19 20 21 21 22 25 24 22 20 18 17 17 16 16 18 14 12 11 12 16 10 6 6 3 2 2 5 10 16 17 17 13 12 10 11 9 5 2 5 6 6 9
15 15 17 20 21 22 22 23 26 27 25 23 22 20 19 17 17 20 18 14 14 16 13 10 6 5 3 5 4 4 10 16 19 14 10 6 8 11 9 7 5 3 5 6 7
19 18 18 19 21 23 24 24 25 28 29 26 25 22 20 19 19 22 19 15 17 21 17 12 8 5 8 7 4 9 14 15 15 13 8 9 11 10 10 9 7 3 4 6 9
23 23 22 21 22 23 24 26 26 28 30 30 28 25 22 21 21 22 22 17 20 24 18 17 11 9 10 8 11 13 14 13 14 13 10 8 9 8 9 8 8 7 4 7 8
23 25 26 26 24 24 25 25 26 28 30 31 31 28 26 22 20 24 24 20 24 25 21 20 13 12 9 7 13 13 12 13 12 13 12 8 10 8 9 8 9 8 7 9 10
22 22 27 28 29 28 27 27 27 28 29 32 32 32 28 21 27 25 25 23 27 29 26 20 19 16 10 7 10 12 7 6 11 11 15 12 13 10 10 9 12 10 11 12 11
26 27 26 25 31 31 31 30 30 30 30 30 32 33 30 25 32 28 26 26 29 35 31 25 21 14 13 8 8 12 9 6 9 10 16 13 13 12 10 10 11 12 12 14 16
30 30 29 29 28 29 35 36 33 33 32 32 30 31 28 35 34 24 28 28 31 34 33 30 27 17 9 7 9 11 10 9 6 3 10 12 15 14 8 8 12 13 13 14 15
37 36 34 32 31 32 32 37 36 35 35 34 32 30 28 36 35 37 31 31 34 34 34 31 22 21 9 10 11 6 7 10 8 5 7 11 16 15 11 6 11 16 17 17 18
44 42 41 38 35 35 36 35 35 38 36 34 32 31 31 35 35 35 30 35 36 38 38 33 25 21 11 8 7 8 8 12 12 12 12 13 14 16 13 9 10 15 17 19 20
51 50 48 45 42 40 39 39 37 35 38 36 31 30 31 33 32 36 36 39 40 44 41 36 28 17 9 13 14 16 13 13 11 13 16 15 13 15 14 10 7 11 16 17 17
56 56 56 53 50 47 45 42 40 36 34 39 37 33 34 38 35 37 41 44 43 43 42 38 28 17 19 15 9 14 19 15 16 14 15 15 13 12 12 11 8 7 12 16 18
57 58 60 60 58 54 51 48 44 40 39 36 39 36 38 41 37 40 42 46 39 38 41 36 23 25 22 20 13 17 23 24 19 14 16 19 15 11 6 7 9 7 10 12 15
56 56 58 61 63 61 58 55 50 46 43 34 35 38 42 41 39 41 41 45 44 35 40 41 32 31 26 22 17 23 29 24 18 19 13 15 16 14 9 5 5 9 8 11 16
54 57 58 56 63 63 62 60 56 52 48 39 40 39 43 43 34 40 38 42 43 37 43 38 35 32 24 23 26 27 24 19 14 16 19 17 18 18 19 16 3 8 6 12 19
50 57 58 61 61 63 63 63 62 58 56 42 41 40 43 46 41 42 43 42 43 42 42 39 37 36 20 24 36 30 29 27 25 18 18 14 9 17 14 13 6 7 8 20 24
55 53 56 62 66 59 61 64 63 64 55 50 45 43 41 48 46 46 46 47 49 50 48 41 43 42 34 35 49 39 34 32 25 18 14 9 9 13 14 6 11 8 13 18 22
60 60 61 62 63 62 61 65 72 66 61 54 52 45 43 45 48 48 49 46 48 49 48 46 46 47 43 40 35 34 37 31 24 17 15 14 16 4 7 4 5 6 12 12 18
44 52 58 60 58 58 62 67 71 70 66 59 54 50 46 48 50 53 52 47 46 49 48 46 45 47 43 40 37 32 42 20 23 22 17 12 12 14 4 6 6 9 12 13 13
31 41 45 49 52 52 56 63 67 69 68 61 63 56 49 52 52 59 55 50 47 48 45 44 46 47 45 47 43 40 25 25 31 25 19 21 18 10 11 7 7 16 12 11 12
24 34 35 37 42 50 55 59 62 61 65 65 63 63 56 56 55 60 60 53 48 46 48 47 48 48 48 55 50 44 39 34 30 26 25 29 23 23 18 10 8 8 11 12 8
21 29 31 33 36 41 49 54 64 64 69 70 67 66 59 62 57 57 60 57 54 51 50 50 50 52 51 52 51 46 39 34 36 33 31 31 30 23 22 20 14 6 5 5 10
18 23 26 30 34 38 42 48 56 62 69 69 71 70 68 63 64 56 58 59 57 54 53 51 55 55 56 58 58 54 46 42 40 38 38 37 28 19 23 25 22 16 11 2 3
19 20 21 26 31 34 36 41 49 61 68 69 73 79 71 67 67 62 57 59 59 58 56 56 57 59 60 55 58 59 52 47 45 47 43 44 30 26 26 25 26 24 20 9 3
15 17 20 23 26 30 34 37 43 56 71 73 73 78 76 72 72 62 59 59 62 61 59 57 60 58 58 57 61 59 54 51 51 48 50 42 35 25 20 19 24 24 23 17 8
16 15 17 20 21 24 29 34 41 54 70 72 76 80 83 77 75 65 63 61 62 65 60 61 59 58 58 61 58 61 60 57 55 53 50 43 37 31 29 25 26 28 23 16 12
17 15 15 17 20 23 21 25 36 50 63 73 74 81 87 79 75 69 66 63 62 65 65 64 61 61 60 58 58 64 61 60 55 51 50 50 38 32 32 28 28 25 17 15 14
Wind_Direction
230 226 222 218 212 211 211 209 203 198 196 193 194 195 196 197 179 179 174 169 167 177 181 143 199 43 23 212 84 81 76 73 72 66 66 65 73 69 59 63 132 164 170 150 146
239 234 229 226 225 220 217 217 213 208 202 199 195 200 199 197 191 193 185 185 173 168 165 155 193 195 1 158 129 75 95 81 69 62 52 53 79 71 64 62 70 92 179 170 169
244 242 237 233 230 230 228 222 219 215 210 206 202 201 201 199 195 202 188 192 177 157 165 155 171 172 125 113 158 109 71 65 68 68 65 72 69 59 56 53 70 82 136 165 180
246 243 243 238 236 234 231 229 225 221 215 210 208 206 204 198 196 197 190 194 183 172 163 178 175 165 164 121 126 96 83 70 60 61 58 56 56 64 68 70 79 107 153 154 170
247 246 242 242 239 237 236 233 230 226 221 217 212 211 208 204 195 200 191 195 186 169 180 188 194 177 181 120 98 70 66 74 71 79 68 73 71 74 82 84 90 102 139 149 154
252 250 245 242 241 239 237 236 233 231 227 222 218 214 209 197 206 200 194 193 192 178 194 192 199 191 211 135 113 104 93 123 104 88 78 73 70 69 63 77 97 103 99 105 134
256 251 249 247 241 240 239 238 235 231 231 227 223 218 212 199 213 201 201 193 195 192 204 188 199 207 233 240 189 128 147 146 111 99 90 77 80 76 61 75 112 114 110 109 116
254 253 250 246 246 241 239 237 236 235 230 229 226 219 207 218 217 207 203 198 197 202 207 212 209 212 204 283 199 169 167 157 152 85 107 112 97 86 76 85 106 112 110 112 117
255 251 250 246 244 244 242 238 235 235 234 228 226 222 213 220 215 216 199 201 198 201 208 217 215 203 213 262 201 211 186 172 183 201 154 123 105 90 75 114 108 111 114 115 119
251 250 249 246 243 242 242 242 237 234 234 233 228 224 216 220 214 216 200 209 201 202 205 215 215 211 200 239 255 230 216 163 168 151 137 122 119 108 84 96 119 119 117 116 116
250 248 246 246 242 240 241 241 239 235 233 232 228 226 218 222 216 213 200 209 208 206 209 216 217 216 208 224 224 198 188 162 147 139 129 118 125 113 96 102 113 136 129 124 123
247 246 245 242 242 239 238 239 239 235 233 229 225 218 221 221 211 210 200 210 213 210 210 218 223 206 206 220 209 200 202 174 154 133 129 107 94 105 101 109 123 175 150 140 132
250 245 243 243 240 238 237 236 236 237 233 231 224 215 220 216 212 210 205 210 213 217 217 223 216 210 214 218 224 197 165 166 155 155 120 110 84 60 60 99 128 175 166 154 145
255 249 244 242 240 237 235 235 233 234 233 222 232 215 218 220 214 215 208 208 213 210 214 217 207 212 211 206 195 165 153 147 147 156 152 129 107 98 54 58 140 147 178 161 156
256 251 249 242 240 236 235 234 232 230 231 225 224 220 214 220 206 219 214 212 213 209 214 214 204 217 214 185 163 166 147 154 144 158 169 134 114 97 75 48 153 156 212 182 161
266 255 248 244 239 236 234 233 230 228 228 224 222 223 216 219 209 213 212 210 208 207 213 213 205 214 208 190 175 172 176 188 195 184 155 131 118 108 91 45 42 157 144 141 153
267 261 253 245 239 237 235 233 231 225 224 221 221 219 216 215 210 214 214 208 205 206 211 206 204 208 208 193 178 183 180 188 183 169 148 162 149 106 92 63 20 160 142 121 139
260 260 256 244 240 235 234 232 229 223 221 220 220 218 215 215 212 210 215 211 205 210 210 205 204 208 209 200 184 181 189 173 169 146 155 174 144 97 114 57 330 181 161 159 141
257 250 247 242 236 234 231 231 226 224 220 216 218 217 214 215 210 208 212 212 211 211 210 206 208 210 211 204 204 191 183 172 187 180 177 196 186 140 108 176 203 194 176 163 160
251 246 239 239 234 230 228 228 228 226 223 215 214 214 211 213 210 206 208 204 209 210 211 209 205 210 210 203 208 207 198 191 172 175 185 202 207 168 167 97 160 165 165 167 170
253 249 241 238 234 231 228 223 221 222 224 216 210 210 208 211 212 208 207 201 203 208 209 209 203 204 209 206 206 201 193 194 194 205 203 193 197 191 167 166 137 106 163 165 171
261 257 245 241 236 232 232 224 217 216 218 218 207 210 209 207 212 209 207 204 199 199 208 207 202 202 208 206 205 202 201 196 200 198 202 205 192 183 174 177 170 187 130 147 167
275 261 255 243 242 239 238 233 219 211 216 214 207 204 206 207 211 208 209 205 202 199 201 202 204 199 205 204 204 204 199 198 200 206 211 211 179 196 184 189 172 189 182 208 253
285 271 255 247 242 239 235 232 222 209 214 212 209 204 204 205 209 208 207 205 205 201 201 200 204 204 204 209 208 210 210 203 203 208 210 207 184 190 198 201 194 175 181 208 264
290 277 263 250 241 234 229 229 223 210 211 213 208 205 200 202 206 204 205 205 204 203 201 204 204 204 202 208 208 210 212 209 212 212 215 198 193 189 188 210 201 194 173 194 219
298 281 264 255 239 236 233 230 224 217 211 210 207 204 198 201 205 197 201 205 204 204 201 204 205 201 201 206 210 212 214 216 218 219 217 210 196 184 199 197 196 197 174 189 212
304 290 266 252 250 243 239 239 228 219 212 209 208 204 198 200 203 199 202 204 205 205 203 206 204 203 199 203 209 214 210 217 223 227 216 213 196 186 202 199 193 194 190 212 214
Height
5871 5871 5872 5873 5874 5876 5877 5878 5881 5883 5886 5888 5890 5892 5895 5897 5900 5901 5902 5904 5904 5903 5904 5905 5904 5904 5904 5903 5904 5905 5904 5904 5904 5902 5901 5901 5903 5903 5902 5902 5903 5903 5904 5904 5905
5869 5869 5870 5871 5872 5873 5875 5876 5878 5880 5883 5885 5888 5891 5893 5896 5899 5900 5901 5902 5903 5903 5904 5905 5905 5905 5905 5905 5907 5907 5904 5905 5903 5902 5902 5904 5905 5903 5903 5903 5902 5902 5902 5903 5905
5865 5866 5867 5868 5869 5870 5872 5873 5875 5877 5880 5883 5886 5889 5891 5894 5897 5897 5900 5902 5903 5904 5905 5906 5905 5905 5907 5907 5908 5906 5905 5904 5903 5904 5905 5904 5903 5904 5903 5903 5902 5902 5901 5902 5904
5861 5862 5863 5864 5865 5866 5867 5869 5872 5874 5876 5880 5883 5886 5889 5892 5895 5896 5899 5901 5903 5905 5905 5905 5906 5905 5906 5906 5906 5906 5904 5904 5905 5906 5906 5906 5906 5906 5904 5904 5902 5901 5902 5902 5902
5856 5856 5857 5859 5860 5862 5863 5865 5867 5869 5872 5876 5880 5883 5887 5890 5894 5893 5896 5899 5901 5902 5903 5905 5905 5906 5906 5907 5905 5904 5904 5904 5906 5906 5907 5908 5907 5907 5905 5904 5903 5903 5903 5902 5903
5850 5851 5851 5853 5854 5856 5858 5860 5862 5864 5867 5870 5875 5879 5883 5889 5888 5891 5894 5897 5900 5901 5901 5905 5904 5904 5907 5907 5907 5906 5907 5907 5906 5908 5908 5907 5907 5908 5907 5905 5905 5906 5906 5904 5905
5844 5845 5846 5846 5848 5850 5852 5853 5856 5859 5862 5865 5869 5873 5879 5887 5884 5888 5892 5895 5898 5900 5899 5903 5903 5905 5906 5908 5907 5907 5910 5910 5909 5909 5907 5909 5909 5910 5910 5909 5908 5907 5907 5906 5907
5837 5838 5839 5841 5842 5843 5844 5846 5849 5852 5856 5859 5863 5868 5874 5876 5880 5888 5890 5892 5895 5897 5898 5900 5903 5906 5905 5907 5905 5907 5910 5911 5911 5911 5909 5910 5911 5910 5912 5912 5910 5908 5909 5910 5911
5827 5829 5830 5833 5835 5836 5836 5839 5841 5844 5849 5853 5858 5863 5869 5869 5876 5877 5885 5888 5890 5893 5896 5897 5902 5905 5905 5905 5905 5906 5911 5912 5912 5912 5912 5912 5911 5911 5913 5914 5913 5911 5912 5913 5914
5816 5817 5819 5823 5826 5827 5829 5830 5833 5837 5842 5847 5853 5858 5863 5863 5869 5876 5883 5884 5886 5888 5891 5894 5898 5903 5904 5905 5907 5909 5911 5913 5914 5913 5912 5912 5911 5910 5912 5915 5915 5915 5914 5915 5916
5802 5804 5806 5810 5815 5817 5820 5822 5826 5830 5834 5840 5847 5852 5855 5858 5864 5869 5876 5878 5880 5882 5885 5889 5894 5900 5903 5904 5905 5906 5910 5912 5913 5913 5912 5912 5913 5912 5913 5915 5917 5917 5916 5917 5919
5785 5788 5791 5795 5800 5804 5809 5812 5815 5823 5825 5829 5835 5842 5845 5848 5856 5860 5868 5871 5875 5879 5882 5886 5890 5899 5901 5901 5903 5905 5907 5910 5914 5912 5912 5912 5914 5913 5913 5915 5916 5918 5918 5918 5919
5767 5770 5774 5779 5784 5790 5795 5801 5806 5811 5815 5821 5826 5835 5836 5840 5847 5852 5859 5864 5872 5878 5881 5884 5893 5895 5897 5900 5902 5903 5904 5908 5910 5912 5914 5914 5914 5915 5914 5915 5917 5918 5919 5919 5920
5749 5752 5756 5760 5768 5774 5781 5787 5795 5800 5805 5818 5817 5825 5828 5834 5840 5845 5852 5858 5864 5872 5877 5881 5888 5890 5893 5899 5902 5904 5906 5906 5910 5912 5915 5915 5915 5915 5916 5915 5917 5918 5920 5919 5921
5730 5733 5738 5744 5748 5758 5765 5771 5780 5789 5793 5806 5809 5813 5820 5826 5840 5839 5848 5851 5859 5867 5870 5878 5884 5886 5890 5899 5902 5906 5905 5908 5910 5912 5914 5916 5917 5917 5916 5917 5919 5919 5921 5919 5921
5711 5713 5718 5724 5730 5740 5748 5754 5764 5775 5779 5794 5798 5803 5810 5816 5827 5829 5835 5844 5853 5859 5863 5875 5882 5881 5890 5896 5900 5903 5903 5903 5905 5909 5913 5915 5918 5918 5917 5917 5920 5921 5921 5918 5922
5691 5693 5697 5701 5713 5725 5730 5737 5748 5754 5772 5782 5784 5792 5800 5804 5814 5819 5826 5832 5839 5846 5852 5865 5872 5877 5884 5886 5887 5895 5898 5901 5904 5909 5914 5913 5917 5919 5917 5918 5921 5923 5925 5924 5924
5668 5671 5671 5682 5693 5705 5711 5720 5728 5745 5756 5766 5774 5783 5790 5795 5804 5809 5816 5824 5833 5840 5849 5856 5864 5870 5876 5882 5887 5891 5897 5898 5903 5908 5910 5912 5915 5918 5918 5919 5919 5924 5925 5926 5927
5643 5643 5651 5662 5674 5684 5694 5700 5715 5728 5739 5753 5761 5770 5778 5783 5791 5797 5804 5819 5827 5834 5842 5849 5860 5869 5873 5882 5885 5887 5891 5899 5900 5901 5904 5908 5912 5914 5916 5917 5919 5924 5926 5927 5928
5628 5624 5634 5643 5656 5665 5674 5686 5699 5709 5720 5737 5747 5757 5765 5769 5777 5783 5794 5808 5818 5827 5838 5845 5855 5863 5870 5876 5878 5882 5893 5892 5892 5895 5898 5906 5910 5914 5918 5920 5921 5924 5926 5927 5929
5620 5616 5626 5632 5639 5647 5655 5666 5681 5693 5702 5718 5732 5743 5752 5759 5766 5774 5784 5799 5811 5820 5828 5836 5846 5856 5862 5862 5869 5875 5879 5884 5889 5891 5896 5903 5908 5912 5915 5921 5923 5923 5925 5927 5929
5614 5612 5616 5621 5627 5633 5640 5650 5661 5673 5683 5698 5717 5727 5738 5749 5757 5767 5777 5788 5797 5806 5816 5828 5836 5845 5852 5860 5867 5871 5876 5882 5885 5890 5892 5898 5904 5908 5912 5917 5922 5923 5924 5926 5927
5608 5607 5608 5611 5614 5620 5626 5634 5645 5660 5666 5680 5698 5712 5724 5737 5747 5759 5769 5781 5789 5797 5804 5817 5823 5834 5842 5850 5855 5860 5868 5874 5880 5886 5888 5894 5903 5905 5908 5913 5918 5921 5924 5925 5925
5604 5602 5603 5603 5604 5609 5615 5621 5630 5643 5648 5662 5680 5695 5709 5723 5735 5748 5761 5771 5781 5789 5797 5801 5812 5821 5832 5842 5851 5855 5863 5869 5875 5879 5883 5887 5898 5901 5905 5910 5914 5916 5920 5924 5924
5600 5597 5595 5595 5597 5601 5605 5611 5618 5627 5632 5643 5663 5680 5695 5710 5723 5740 5752 5760 5769 5778 5788 5795 5802 5813 5829 5837 5843 5851 5858 5863 5867 5875 5879 5887 5891 5897 5902 5906 5910 5913 5915 5919 5922
5595 5592 5590 5590 5591 5593 5596 5600 5606 5611 5619 5630 5647 5662 5680 5697 5713 5731 5738 5746 5757 5769 5779 5784 5795 5806 5817 5827 5835 5841 5850 5855 5861 5867 5874 5884 5886 5894 5899 5901 5906 5910 5910 5915 5920
5590 5587 5585 5585 5586 5587 5589 5591 5595 5598 5608 5621 5633 5651 5670 5688 5702 5722 5731 5740 5750 5758 5769 5776 5787 5794 5803 5819 5827 5825 5835 5846 5853 5859 5868 5874 5886 5889 5892 5897 5901 5904 5906 5911 5916